• In Latvia
  • List of Countries
  • For 7 days
  • Water Temperature
  • Satellite Maps
  • Weather Map
  • Weather Widgets
  • user-avatar
    Login

    Hourly Weather Elbasan

    Today, 26 July, Wednesday

    Time Temperature Precipitation Wind Pressure Humidity
    00:00 +21°C° 0.1 mm 2 mps 728 mmHg 74%
    01:00 +20°C° 0.1 mm 2 mps 728 mmHg 75%
    02:00 +20°C° 0.1 mm 2 mps 728 mmHg 75%
    03:00 +20°C° 0.1 mm 2 mps 728 mmHg 76%
    04:00 +19°C° 0.1 mm 2 mps 727 mmHg 77%
    05:00 +21°C° 0.1 mm 2 mps 727 mmHg 72%
    06:00 +24°C° 0.1 mm 2 mps 728 mmHg 67%
    07:00 +26°C° 0.1 mm 2 mps 728 mmHg 62%
    08:00 +27°C° 0.2 mm 2 mps 728 mmHg 57%
    09:00 +28°C° 0.2 mm 3 mps 728 mmHg 52%
    10:00 +29°C° 0.2 mm 3 mps 728 mmHg 47%
    11:00 +29°C° 0.3 mm 4 mps 728 mmHg 48%
    12:00 +29°C° 0.3 mm 4 mps 728 mmHg 49%
    13:00 +29°C° 0.3 mm 4 mps 728 mmHg 49%
    14:00 +29°C° 0.2 mm 4 mps 728 mmHg 49%
    15:00 +29°C° 0.2 mm 4 mps 727 mmHg 50%
    16:00 +28°C° 0.2 mm 4 mps 727 mmHg 50%
    17:00 +26°C° 0.1 mm 3 mps 727 mmHg 56%
    18:00 +25°C° 0.1 mm 2 mps 727 mmHg 63%
    19:00 +23°C° 0.1 mm 2 mps 728 mmHg 69%
    20:00 +22°C° 0.1 mm 1 mps 728 mmHg 74%
    21:00 +21°C° 0.1 mm 1 mps 728 mmHg 79%
    22:00 +20°C° 0.1 mm 1 mps 729 mmHg 84%
    23:00 +20°C° 0 mm 1 mps 729 mmHg 84%

    Tomorrow, 27 July, Thursday

    Time Temperature Precipitation Wind Pressure Humidity
    00:00 +19°C° 0 mm 1 mps 729 mmHg 85%
    01:00 +19°C° 0 mm 1 mps 729 mmHg 85%
    02:00 +19°C° 0 mm 1 mps 729 mmHg 85%
    03:00 +18°C° 0 mm 1 mps 729 mmHg 86%
    04:00 +18°C° 0 mm 1 mps 729 mmHg 86%
    05:00 +20°C° 0 mm 1 mps 729 mmHg 81%
    06:00 +21°C° 0 mm 1 mps 729 mmHg 75%
    07:00 +23°C° 0 mm 1 mps 729 mmHg 69%
    08:00 +25°C° 0 mm 2 mps 730 mmHg 61%
    09:00 +26°C° 0 mm 2 mps 730 mmHg 54%
    10:00 +28°C° 0 mm 3 mps 730 mmHg 46%
    11:00 +28°C° 0.4 mm 3 mps 730 mmHg 45%
    12:00 +29°C° 0.4 mm 4 mps 730 mmHg 44%
    13:00 +29°C° 0.4 mm 4 mps 730 mmHg 43%
    14:00 +29°C° 0.3 mm 4 mps 730 mmHg 45%
    15:00 +29°C° 0.3 mm 4 mps 730 mmHg 46%
    16:00 +28°C° 0.3 mm 4 mps 730 mmHg 48%
    17:00 +26°C° 0.1 mm 3 mps 730 mmHg 56%
    18:00 +24°C° 0.1 mm 3 mps 730 mmHg 63%
    19:00 +23°C° 0.1 mm 2 mps 731 mmHg 71%
    20:00 +22°C° 0 mm 1 mps 731 mmHg 74%
    21:00 +21°C° 0 mm 1 mps 732 mmHg 78%
    22:00 +20°C° 0 mm 1 mps 732 mmHg 81%
    23:00 +20°C° 0 mm 1 mps 732 mmHg 81%

    Day after tomorrow, 28 July, Friday

    Time Temperature Precipitation Wind Pressure Humidity
    00:00 +20°C° 0 mm 1 mps 733 mmHg 80%
    01:00 +19°C° 0 mm 1 mps 733 mmHg 80%
    02:00 +19°C° 0 mm 1 mps 733 mmHg 79%
    03:00 +19°C° 0 mm 1 mps 733 mmHg 78%
    04:00 +19°C° 0 mm 1 mps 733 mmHg 78%
    05:00 +21°C° 0 mm 1 mps 733 mmHg 71%
    06:00 +23°C° 0 mm 1 mps 734 mmHg 65%
    07:00 +24°C° 0 mm 1 mps 734 mmHg 59%
    08:00 +26°C° 0 mm 1 mps 734 mmHg 52%
    09:00 +28°C° 0 mm 1 mps 735 mmHg 45%
    10:00 +30°C° 0 mm 1 mps 735 mmHg 38%
    11:00 +31°C° 0 mm 2 mps 735 mmHg 35%
    12:00 +33°C° 0 mm 3 mps 735 mmHg 33%
    13:00 +34°C° 0 mm 3 mps 734 mmHg 31%
    14:00 +34°C° 0 mm 3 mps 734 mmHg 31%
    15:00 +33°C° 0 mm 4 mps 734 mmHg 32%
    16:00 +33°C° 0 mm 4 mps 734 mmHg 33%
    17:00 +30°C° 0 mm 3 mps 734 mmHg 40%
    18:00 +27°C° 0 mm 2 mps 735 mmHg 47%
    19:00 +25°C° 0 mm 1 mps 735 mmHg 54%
    20:00 +24°C° 0 mm 1 mps 735 mmHg 55%
    21:00 +23°C° 0 mm 1 mps 736 mmHg 57%
    22:00 +22°C° 0 mm 1 mps 736 mmHg 58%
    23:00 +22°C° 0 mm 1 mps 736 mmHg 58%

    29 July, Saturday

    Time Temperature Precipitation Wind Pressure Humidity
    00:00 +22°C° 0 mm 1 mps 736 mmHg 58%
    01:00 +22°C° 0 mm 1 mps 736 mmHg 57%
    02:00 +22°C° 0 mm 1 mps 736 mmHg 58%
    03:00 +22°C° 0 mm 1 mps 737 mmHg 59%
    04:00 +21°C° 0 mm 1 mps 737 mmHg 59%
    05:00 +23°C° 0 mm 1 mps 737 mmHg 55%
    06:00 +26°C° 0 mm 1 mps 737 mmHg 51%
    07:00 +28°C° 0 mm 1 mps 737 mmHg 46%
    08:00 +30°C° 0 mm 1 mps 737 mmHg 42%
    09:00 +32°C° 0 mm 1 mps 738 mmHg 37%
    10:00 +34°C° 0 mm 1 mps 738 mmHg 33%
    11:00 +36°C° 0 mm 2 mps 738 mmHg 31%
    12:00 +36°C° 0 mm 2 mps 737 mmHg 30%
    13:00 +37°C° 0 mm 3 mps 737 mmHg 28%
    14:00 +37°C° 0 mm 3 mps 737 mmHg 29%
    15:00 +36°C° 0 mm 3 mps 737 mmHg 30%
    16:00 +36°C° 0 mm 3 mps 737 mmHg 31%
    17:00 +32°C° 0 mm 2 mps 737 mmHg 37%
    18:00 +30°C° 0 mm 2 mps 737 mmHg 43%
    19:00 +27°C° 0 mm 1 mps 737 mmHg 48%
    20:00 +27°C° 0 mm 1 mps 737 mmHg 50%
    21:00 +26°C° 0 mm 1 mps 737 mmHg 51%
    22:00 +25°C° 0 mm 1 mps 737 mmHg 53%
    23:00 +25°C° 0 mm 1 mps 737 mmHg 53%

    30 July, Sunday

    Time Temperature Precipitation Wind Pressure Humidity
    00:00 +25°C° 0 mm 1 mps 737 mmHg 54%
    01:00 +25°C° 0 mm 1 mps 737 mmHg 54%
    02:00 +24°C° 0 mm 1 mps 737 mmHg 55%
    03:00 +24°C° 0 mm 1 mps 737 mmHg 56%
    04:00 +24°C° 0 mm 1 mps 737 mmHg 58%
    05:00 +26°C° 0 mm 1 mps 737 mmHg 54%
    06:00 +28°C° 0 mm 1 mps 737 mmHg 50%
    07:00 +30°C° 0 mm 1 mps 737 mmHg 47%
    08:00 +31°C° 0 mm 1 mps 737 mmHg 42%
    09:00 +33°C° 0 mm 1 mps 737 mmHg 37%
    10:00 +35°C° 0 mm 1 mps 737 mmHg 31%
    11:00 +37°C° 0 mm 2 mps 737 mmHg 30%
    12:00 +37°C° 0 mm 3 mps 737 mmHg 29%
    13:00 +38°C° 0 mm 3 mps 736 mmHg 27%
    14:00 +37°C° 0 mm 3 mps 736 mmHg 29%
    15:00 +37°C° 0 mm 3 mps 736 mmHg 30%
    16:00 +36°C° 0 mm 3 mps 736 mmHg 31%
    17:00 +34°C° 0 mm 3 mps 736 mmHg 36%
    18:00 +31°C° 0 mm 2 mps 736 mmHg 41%
    19:00 +28°C° 0 mm 1 mps 735 mmHg 46%
    20:00 +27°C° 0 mm 1 mps 736 mmHg 48%
    21:00 +27°C° 0 mm 1 mps 736 mmHg 50%
    22:00 +26°C° 0 mm 1 mps 736 mmHg 52%
    23:00 +26°C° 0 mm 1 mps 736 mmHg 53%

    31 July, Monday

    Time Temperature Precipitation Wind Pressure Humidity
    00:00 +25°C° 0 mm 1 mps 736 mmHg 53%
    01:00 +25°C° 0 mm 1 mps 736 mmHg 54%
    02:00 +25°C° 0 mm 1 mps 736 mmHg 55%
    03:00 +25°C° 0 mm 1 mps 736 mmHg 56%
    04:00 +24°C° 0 mm 1 mps 736 mmHg 56%
    05:00 +26°C° 0 mm 1 mps 736 mmHg 53%
    06:00 +28°C° 0 mm 1 mps 736 mmHg 49%
    07:00 +30°C° 0 mm 1 mps 736 mmHg 46%
    08:00 +32°C° 0 mm 2 mps 736 mmHg 41%
    09:00 +35°C° 0 mm 2 mps 736 mmHg 37%
    10:00 +37°C° 0 mm 2 mps 736 mmHg 32%
    11:00 +38°C° 0 mm 2 mps 736 mmHg 30%
    12:00 +39°C° 0 mm 3 mps 735 mmHg 29%
    13:00 +39°C° 0 mm 3 mps 735 mmHg 27%
    14:00 +39°C° 0.1 mm 3 mps 735 mmHg 28%
    15:00 +38°C° 0.1 mm 3 mps 735 mmHg 29%
    16:00 +38°C° 0.1 mm 3 mps 735 mmHg 30%
    17:00 +35°C° 0 mm 3 mps 735 mmHg 36%
    18:00 +32°C° 0 mm 2 mps 735 mmHg 41%
    19:00 +30°C° 0 mm 1 mps 735 mmHg 47%
    20:00 +29°C° 0 mm 2 mps 735 mmHg 49%
    21:00 +28°C° 0 mm 2 mps 736 mmHg 51%
    22:00 +27°C° 0 mm 2 mps 736 mmHg 54%
    23:00 +26°C° 0 mm 2 mps 736 mmHg 54%
    Show more